| time (UTC) | temp F | wind direction | speed knots | gust knots | rain 1hr in | rain 24hr in | rain mn in | humidity % | barometer mb |
| 20260506172621 | 79 | 285 | 0.9 | 7.8 | 0.00 | 0.00 | 0.00 | 32 | 1024.1 |
| 20260506172123 | 79 | 257 | 2.6 | 13.0 | 0.00 | 0.00 | 0.00 | 31 | 1024.0 |
| 20260506171843 | 78 | 25 | 1.7 | 13.0 | 0.00 | 0.00 | 0.00 | 31 | 1024.0 |
| 20260506171121 | 78 | 313 | 1.7 | 7.8 | 0.00 | 0.00 | 0.00 | 32 | 1024.1 |
| 20260506170842 | 77 | 276 | 1.7 | 9.6 | 0.00 | 0.00 | 0.00 | 33 | 1024.1 |
| 20260506170121 | 77 | 268 | 3.5 | 11.3 | 0.00 | 0.00 | 0.00 | 32 | 1024.1 |
| 20260506165618 | 76 | 321 | 4.3 | 11.3 | 0.00 | 0.00 | 0.00 | 32 | 1024.1 |
| 20260506165121 | 76 | 272 | 0.9 | 11.3 | 0.00 | 0.00 | 0.00 | 34 | 1024.1 |
| 20260506164853 | 76 | 44 | 0.9 | 11.3 | 0.00 | 0.00 | 0.00 | 36 | 1024.2 |
| 20260506164120 | 75 | 303 | 1.7 | 9.6 | 0.00 | 0.00 | 0.00 | 36 | 1024.4 |
| 20260506163622 | 75 | 282 | 1.7 | 12.2 | 0.00 | 0.00 | 0.00 | 35 | 1024.5 |
| 20260506163119 | 75 | 272 | 3.5 | 12.2 | 0.00 | 0.00 | 0.00 | 35 | 1024.5 |
| 20260506162620 | 74 | 32 | 2.6 | 12.2 | 0.00 | 0.00 | 0.00 | 37 | 1024.5 |
| 20260506162341 | 74 | 13 | 4.3 | 12.2 | 0.00 | 0.00 | 0.00 | 37 | 1024.6 |
| 20260506161620 | 74 | 306 | 1.7 | 10.4 | 0.00 | 0.00 | 0.00 | 38 | 1024.7 |
| 20260506161117 | 74 | 302 | 0.9 | 10.4 | 0.00 | 0.00 | 0.00 | 38 | 1024.7 |
| 20260506160620 | 73 | 271 | 0.9 | 10.4 | 0.00 | 0.00 | 0.00 | 38 | 1024.8 |
| 20260506160121 | 73 | 63 | 1.7 | 5.2 | 0.00 | 0.00 | 0.00 | 41 | 1024.8 |
| 20260506155620 | 73 | 265 | 1.7 | 5.2 | 0.00 | 0.00 | 0.00 | 41 | 1024.7 |
| 20260506155121 | 72 | 18 | 0.0 | 5.2 | 0.00 | 0.00 | 0.00 | 43 | 1024.8 |
| 20260506154618 | 71 | 293 | 0.0 | 7.8 | 0.00 | 0.00 | 0.00 | 45 | 1024.9 |
| 20260506154118 | 69 | 251 | 1.7 | 7.8 | 0.00 | 0.00 | 0.00 | 42 | 1024.8 |
| 20260506153619 | 68 | 286 | 1.7 | 4.3 | 0.00 | 0.00 | 0.00 | 46 | 1025.1 |
| 20260506153119 | 68 | 76 | 0.9 | 2.6 | 0.00 | 0.00 | 0.00 | 47 | 1025.1 |
| 20260506152619 | 67 | 96 | 1.7 | 4.3 | 0.00 | 0.00 | 0.00 | 47 | 1025.1 |
| 20260506152119 | 67 | 49 | 1.7 | 4.3 | 0.00 | 0.00 | 0.00 | 46 | 1025.3 |
| 20260506151619 | 66 | 100 | 1.7 | 4.3 | 0.00 | 0.00 | 0.00 | 48 | 1025.2 |
| 20260506151118 | 65 | 106 | 2.6 | 4.3 | 0.00 | 0.00 | 0.00 | 52 | 1025.2 |
| 20260506150619 | 63 | 18 | 0.0 | 6.1 | 0.00 | 0.00 | 0.00 | 52 | 1025.3 |
| 20260506150118 | 62 | 55 | 3.5 | 6.1 | 0.00 | 0.00 | 0.00 | 53 | 1025.3 |
| 20260506145618 | 62 | 63 | 1.7 | 6.1 | 0.00 | 0.00 | 0.00 | 54 | 1025.5 |
| 20260506145118 | 61 | 99 | 3.5 | 6.1 | 0.00 | 0.00 | 0.00 | 54 | 1025.4 |
| 20260506144619 | 60 | 117 | 0.9 | 4.3 | 0.00 | 0.00 | 0.00 | 56 | 1025.6 |
| 20260506144116 | 59 | 72 | 0.0 | 4.3 | 0.00 | 0.00 | 0.00 | 57 | 1025.6 |
| 20260506143844 | 58 | 106 | 0.9 | 3.5 | 0.00 | 0.00 | 0.00 | 58 | 1025.6 |
| 20260506143119 | 57 | 65 | 1.7 | 4.3 | 0.00 | 0.00 | 0.00 | 59 | 1025.5 |
| 20260506142618 | 56 | 109 | 1.7 | 4.3 | 0.00 | 0.00 | 0.00 | 60 | 1025.6 |
| 20260506142341 | 55 | 55 | 0.0 | 2.6 | 0.00 | 0.00 | 0.00 | 64 | 1025.7 |
| 20260506141616 | 54 | 103 | 0.9 | 2.6 | 0.00 | 0.00 | 0.00 | 65 | 1025.6 |
| 20260506141116 | 54 | 100 | 0.9 | 2.6 | 0.00 | 0.00 | 0.00 | 65 | 1025.6 |
| 20260506140617 | 53 | 61 | 0.0 | 1.7 | 0.00 | 0.00 | 0.00 | 66 | 1025.7 |
| 20260506140117 | 53 | 93 | 0.0 | 1.7 | 0.00 | 0.00 | 0.00 | 68 | 1025.7 |
| 20260506135618 | 52 | 113 | 0.0 | 2.6 | 0.00 | 0.00 | 0.00 | 68 | 1025.6 |
| 20260506135116 | 52 | 82 | 0.9 | 2.6 | 0.00 | 0.00 | 0.00 | 68 | 1025.6 |
| 20260506134845 | 52 | 104 | 0.9 | 2.6 | 0.00 | 0.00 | 0.00 | 66 | 1025.6 |
| 20260506134117 | 52 | 34 | 0.9 | 2.6 | 0.00 | 0.00 | 0.00 | 68 | 1025.6 |
| 20260506133617 | 51 | 285 | 0.0 | 2.6 | 0.00 | 0.00 | 0.00 | 68 | 1025.7 |
| 20260506133348 | 51 | 100 | 0.0 | 2.6 | 0.00 | 0.00 | 0.00 | 69 | 1025.6 |
| 20260506132842 | 50 | 72 | 0.0 | 2.6 | 0.00 | 0.00 | 0.00 | 69 | 1025.6 |
| 20260506132116 | 50 | 96 | 0.9 | 4.3 | 0.00 | 0.00 | 0.00 | 69 | 1025.5 |
| 20260506131841 | 50 | 164 | 0.0 | 4.3 | 0.00 | 0.00 | 0.00 | 68 | 1025.6 |
| 20260506131117 | 49 | 86 | 0.9 | 3.5 | 0.00 | 0.00 | 0.00 | 70 | 1025.4 |
| 20260506130615 | 49 | 111 | 0.0 | 3.5 | 0.00 | 0.00 | 0.00 | 71 | 1025.6 |
| 20260506130117 | 49 | 54 | 1.7 | 3.5 | 0.00 | 0.00 | 0.00 | 70 | 1025.6 |
| 20260506125615 | 49 | 259 | 0.0 | 3.5 | 0.00 | 0.00 | 0.00 | 70 | 1025.6 |
| 20260506125340 | 49 | 24 | 0.9 | 3.5 | 0.00 | 0.00 | 0.00 | 68 | 1025.5 |
| 20260506124620 | 50 | 127 | 1.7 | 3.5 | 0.00 | 0.00 | 0.00 | 67 | 1025.5 |
| 20260506124114 | 49 | 127 | 0.0 | 2.6 | 0.00 | 0.00 | 0.00 | 67 | 1025.5 |
| 20260506124100 | 49 | 121 | 0.0 | 3.5 | 0.00 | 0.00 | 0.00 | 67 | 1025.4 |
| 20260506123111 | 49 | 135 | 0.0 | 3.5 | 0.00 | 0.00 | 0.00 | 68 | 1025.4 |
| 20260506122613 | 49 | 130 | 0.0 | 1.7 | 0.00 | 0.00 | 0.00 | 67 | 1025.4 |
| 20260506122114 | 50 | 172 | 0.0 | 2.6 | 0.00 | 0.00 | 0.00 | 66 | 1025.3 |
| 20260506121616 | 50 | 144 | 0.9 | 2.6 | 0.00 | 0.00 | 0.00 | 65 | 1025.3 |
| 20260506121114 | 50 | 54 | 0.9 | 1.7 | 0.00 | 0.00 | 0.00 | 65 | 1025.3 |
| 20260506120615 | 50 | 131 | 0.0 | 2.6 | 0.00 | 0.00 | 0.00 | 64 | 1025.2 |
| 20260506120340 | 51 | 149 | 2.6 | 2.6 | 0.00 | 0.00 | 0.00 | 64 | 1025.2 |
| 20260506115610 | 51 | 116 | 0.0 | 2.6 | 0.00 | 0.00 | 0.00 | 63 | 1025.2 |
| 20260506115112 | 51 | 106 | 0.9 | 4.3 | 0.00 | 0.00 | 0.00 | 63 | 1025.2 |
| 20260506114610 | 51 | 279 | 1.7 | 4.3 | 0.00 | 0.00 | 0.00 | 63 | 1025.2 |
| 20260506114112 | 51 | 305 | 0.0 | 4.3 | 0.00 | 0.00 | 0.00 | 64 | 1025.3 |
| 20260506113613 | 51 | 204 | 1.7 | 4.3 | 0.00 | 0.00 | 0.00 | 64 | 1025.2 |
| 20260506113113 | 50 | 199 | 0.0 | 2.6 | 0.00 | 0.00 | 0.00 | 65 | 1025.2 |
| 20260506112613 | 50 | 127 | 0.0 | 2.6 | 0.00 | 0.00 | 0.00 | 65 | 1025.2 |
| 20260506112109 | 51 | 158 | 0.0 | 3.5 | 0.00 | 0.00 | 0.00 | 66 | 1025.3 |
| 20260506111610 | 51 | 279 | 0.9 | 3.5 | 0.00 | 0.00 | 0.00 | 64 | 1025.3 |
| 20260506111110 | 51 | 219 | 0.0 | 3.5 | 0.00 | 0.00 | 0.00 | 63 | 1025.3 |
| 20260506110611 | 52 | 158 | 1.7 | 3.5 | 0.00 | 0.00 | 0.00 | 62 | 1025.2 |
| 20260506110109 | 52 | 240 | 0.0 | 2.6 | 0.00 | 0.00 | 0.00 | 61 | 1025.3 |
| 20260506105610 | 53 | 121 | 0.9 | 3.5 | 0.00 | 0.00 | 0.00 | 60 | 1025.1 |
| 20260506105112 | 53 | 145 | 1.7 | 5.2 | 0.00 | 0.00 | 0.00 | 60 | 1025.2 |
| 20260506104612 | 53 | 137 | 3.5 | 5.2 | 0.00 | 0.00 | 0.00 | 62 | 1025.1 |
| 20260506104113 | 52 | 104 | 1.7 | 2.6 | 0.00 | 0.00 | 0.00 | 61 | 1025.2 |
| 20260506103612 | 52 | 58 | 0.9 | 3.5 | 0.00 | 0.00 | 0.00 | 62 | 1025.2 |
| 20260506103112 | 53 | 116 | 3.5 | 3.5 | 0.00 | 0.00 | 0.00 | 61 | 1025.2 |
| 20260506103102 | 53 | 329 | 0.0 | 2.6 | 0.00 | 0.00 | 0.00 | 60 | 1025.2 |
| 20260506102113 | 53 | 152 | 0.9 | 2.6 | 0.00 | 0.00 | 0.00 | 59 | 1025.1 |
| 20260506101612 | 54 | 213 | 0.0 | 2.6 | 0.00 | 0.00 | 0.00 | 58 | 1025.1 |
| 20260506101113 | 54 | 186 | 1.7 | 1.7 | 0.00 | 0.00 | 0.00 | 58 | 1025.1 |
| 20260506100611 | 54 | 240 | 0.0 | 1.7 | 0.00 | 0.00 | 0.00 | 59 | 1025.1 |
| 20260506100111 | 54 | 216 | 0.0 | 2.6 | 0.00 | 0.00 | 0.00 | 58 | 1025.0 |
| 20260506095832 | 55 | 162 | 1.7 | 2.6 | 0.00 | 0.00 | 0.00 | 58 | 1025.0 |
| 20260506095112 | 54 | 238 | 0.9 | 1.7 | 0.00 | 0.00 | 0.00 | 58 | 1025.1 |
| 20260506094611 | 55 | 217 | 0.9 | 1.7 | 0.00 | 0.00 | 0.00 | 58 | 1025.0 |
| 20260506094111 | 55 | 202 | 0.0 | 1.7 | 0.00 | 0.00 | 0.00 | 57 | 1025.0 |
| 20260506093611 | 56 | 228 | 0.0 | 1.7 | 0.00 | 0.00 | 0.00 | 56 | 1025.0 |
| 20260506093110 | 56 | 200 | 0.9 | 2.6 | 0.00 | 0.00 | 0.00 | 55 | 1025.0 |
| 20260506092612 | 57 | 278 | 0.0 | 2.6 | 0.00 | 0.00 | 0.00 | 54 | 1025.1 |
| 20260506092110 | 57 | 276 | 0.0 | 3.5 | 0.00 | 0.00 | 0.00 | 54 | 1025.1 |
| 20260506091610 | 57 | 275 | 1.7 | 3.5 | 0.00 | 0.00 | 0.00 | 54 | 1025.1 |
| 20260506091109 | 57 | 314 | 1.7 | 3.5 | 0.00 | 0.00 | 0.00 | 53 | 1025.1 |
| 20260506090610 | 58 | 144 | 0.9 | 4.3 | 0.00 | 0.00 | 0.00 | 52 | 1024.9 |
| 20260506090111 | 58 | 151 | 1.7 | 4.3 | 0.00 | 0.00 | 0.00 | 52 | 1024.9 |
| 20260506085610 | 58 | 251 | 1.7 | 3.5 | 0.00 | 0.00 | 0.00 | 52 | 1024.9 |
| 20260506085110 | 59 | 217 | 0.9 | 4.3 | 0.00 | 0.00 | 0.00 | 53 | 1025.0 |
| 20260506084610 | 58 | 217 | 2.6 | 4.3 | 0.00 | 0.00 | 0.00 | 53 | 1024.9 |
| 20260506084343 | 57 | 135 | 2.6 | 4.3 | 0.00 | 0.00 | 0.00 | 55 | 1024.8 |
| 20260506083610 | 57 | 182 | 0.9 | 3.5 | 0.00 | 0.00 | 0.00 | 55 | 1024.9 |
| 20260506083109 | 57 | 154 | 1.7 | 3.5 | 0.00 | 0.00 | 0.00 | 56 | 1024.8 |
| 20260506082609 | 58 | 144 | 1.7 | 3.5 | 0.00 | 0.00 | 0.00 | 55 | 1024.8 |
| 20260506082329 | 58 | 199 | 0.9 | 3.5 | 0.00 | 0.00 | 0.00 | 54 | 1024.8 |
| 20260506081610 | 59 | 144 | 1.7 | 3.5 | 0.00 | 0.00 | 0.00 | 53 | 1024.7 |
| 20260506081109 | 60 | 134 | 0.0 | 3.5 | 0.00 | 0.00 | 0.00 | 52 | 1024.6 |
| 20260506080610 | 61 | 151 | 0.0 | 3.5 | 0.00 | 0.00 | 0.00 | 50 | 1024.6 |
| 20260506080108 | 62 | 107 | 0.9 | 3.5 | 0.00 | 0.00 | 0.00 | 49 | 1024.6 |
| 20260506073109 | 67 | 282 | 0.9 | 7.8 | 0.00 | 0.00 | 0.00 | 44 | 1024.4 |
| 20260506072608 | 67 | 269 | 2.6 | 7.8 | 0.00 | 0.00 | 0.00 | 44 | 1024.2 |
| 20260506072109 | 67 | 268 | 1.7 | 7.8 | 0.00 | 0.00 | 0.00 | 44 | 1024.2 |
| 20260506071607 | 66 | 300 | 2.6 | 11.3 | 0.00 | 0.00 | 0.00 | 44 | 1024.2 |
| 20260506071107 | 66 | 300 | 2.6 | 11.3 | 0.00 | 0.00 | 0.00 | 45 | 1024.4 |
| 20260506070834 | 66 | 265 | 2.6 | 8.7 | 0.00 | 0.00 | 0.00 | 45 | 1024.4 |
| 20260506070107 | 66 | 276 | 3.5 | 5.2 | 0.00 | 0.00 | 0.00 | 46 | 1024.2 |
| 20260506062107 | 65 | 268 | 0.0 | 2.6 | 0.00 | 0.00 | 0.00 | 47 | 1024.2 |
| 20260506061606 | 65 | 279 | 0.9 | 2.6 | 0.00 | 0.00 | 0.00 | 47 | 1024.1 |
| 20260506061107 | 64 | 226 | 0.0 | 2.6 | 0.00 | 0.00 | 0.00 | 48 | 1024.0 |
| 20260506060606 | 65 | 258 | 0.0 | 0.9 | 0.00 | 0.00 | 0.00 | 47 | 1024.0 |
| 20260506060107 | 66 | 128 | 0.0 | 0.9 | 0.00 | 0.00 | 0.00 | 46 | 1024.0 |
| 20260506051105 | 71 | 293 | 1.7 | 5.2 | 0.00 | 0.00 | 0.00 | 39 | 1023.5 |
| 20260506050606 | 71 | 275 | 0.9 | 5.2 | 0.00 | 0.00 | 0.00 | 39 | 1023.5 |
| 20260506050332 | 71 | 286 | 0.9 | 4.3 | 0.00 | 0.00 | 0.00 | 39 | 1023.4 |
| 20260506045104 | 71 | 300 | 1.7 | 8.7 | 0.00 | 0.00 | 0.00 | 38 | 1023.3 |
| 20260506044605 | 71 | 288 | 1.7 | 7.8 | 0.00 | 0.00 | 0.00 | 38 | 1023.3 |
| 20260506044104 | 72 | 278 | 1.7 | 7.8 | 0.00 | 0.00 | 0.00 | 38 | 1023.3 |
| 20260506043604 | 72 | 271 | 2.6 | 6.1 | 0.00 | 0.00 | 0.00 | 37 | 1023.2 |
| 20260506043105 | 72 | 338 | 2.6 | 5.2 | 0.00 | 0.00 | 0.00 | 37 | 1023.1 |
| 20260506042604 | 72 | 258 | 0.9 | 6.1 | 0.00 | 0.00 | 0.00 | 37 | 1023.1 |
| 20260506042105 | 73 | 269 | 2.6 | 8.7 | 0.00 | 0.00 | 0.00 | 36 | 1023.1 |
| 20260506041604 | 73 | 276 | 3.5 | 8.7 | 0.00 | 0.00 | 0.00 | 36 | 1023.0 |
| 20260506041103 | 73 | 262 | 3.5 | 8.7 | 0.00 | 0.00 | 0.00 | 36 | 1022.9 |
| 20260506040603 | 73 | 275 | 4.3 | 8.7 | 0.00 | 0.00 | 0.00 | 36 | 1022.9 |
| 20260506040104 | 73 | 265 | 4.3 | 9.6 | 0.00 | 0.00 | 0.00 | 35 | 1022.7 |
| 20260506035604 | 73 | 261 | 3.5 | 9.6 | 0.00 | 0.00 | 0.00 | 35 | 1022.6 |
| 20260506035106 | 74 | 283 | 2.6 | 9.6 | 0.00 | 0.00 | 0.00 | 35 | 1022.5 |
| 20260506035059 | 73 | 278 | 3.5 | 6.1 | 0.00 | 0.00 | 0.00 | 35 | 1022.4 |
| 20260506034103 | 74 | 285 | 2.6 | 6.1 | 0.00 | 0.00 | 0.00 | 34 | 1022.4 |
| 20260506033604 | 74 | 295 | 2.6 | 9.6 | 0.00 | 0.00 | 0.00 | 34 | 1022.3 |
| 20260506033102 | 74 | 275 | 2.6 | 9.6 | 0.00 | 0.00 | 0.00 | 33 | 1022.2 |
| 20260506032603 | 75 | 279 | 2.6 | 9.6 | 0.00 | 0.00 | 0.00 | 33 | 1022.0 |
| 20260506032103 | 75 | 285 | 3.5 | 9.6 | 0.00 | 0.00 | 0.00 | 33 | 1022.0 |
| 20260506031602 | 75 | 285 | 4.3 | 10.4 | 0.00 | 0.00 | 0.00 | 32 | 1021.9 |
| 20260506031321 | 75 | 268 | 3.5 | 10.4 | 0.00 | 0.00 | 0.00 | 32 | 1021.9 |
| 20260506030601 | 75 | 285 | 3.5 | 12.2 | 0.00 | 0.00 | 0.00 | 32 | 1021.7 |
| 20260506030103 | 75 | 259 | 5.2 | 12.2 | 0.00 | 0.00 | 0.00 | 32 | 1021.6 |
| 20260506025601 | 76 | 292 | 1.7 | 8.7 | 0.00 | 0.00 | 0.00 | 32 | 1021.6 |
| 20260506025104 | 76 | 285 | 3.5 | 7.8 | 0.00 | 0.00 | 0.00 | 31 | 1021.5 |
| 20260506024829 | 76 | 265 | 0.9 | 6.1 | 0.00 | 0.00 | 0.00 | 31 | 1021.5 |
| 20260506024322 | 77 | 289 | 2.6 | 7.8 | 0.00 | 0.00 | 0.00 | 30 | 1021.5 |
| 20260506023602 | 77 | 288 | 3.5 | 7.8 | 0.00 | 0.00 | 0.00 | 30 | 1021.4 |
| 20260506023101 | 78 | 252 | 1.7 | 11.3 | 0.00 | 0.00 | 0.00 | 29 | 1021.5 |
| 20260506022602 | 79 | 289 | 2.6 | 11.3 | 0.00 | 0.00 | 0.00 | 28 | 1021.4 |
| 20260506022100 | 80 | 274 | 1.7 | 7.8 | 0.00 | 0.00 | 0.00 | 27 | 1021.5 |
| 20260506021602 | 80 | 243 | 1.7 | 11.3 | 0.00 | 0.00 | 0.00 | 27 | 1021.5 |
| 20260506021100 | 80 | 298 | 4.3 | 11.3 | 0.00 | 0.00 | 0.00 | 26 | 1021.5 |
| 20260506020603 | 81 | 269 | 1.7 | 11.3 | 0.00 | 0.00 | 0.00 | 26 | 1021.5 |
| 20260506020318 | 81 | 279 | 2.6 | 9.6 | 0.00 | 0.00 | 0.00 | 25 | 1021.4 |
| 20260506015600 | 82 | 240 | 4.3 | 9.6 | 0.00 | 0.00 | 0.00 | 25 | 1021.3 |
| 20260506015100 | 82 | 45 | 2.6 | 10.4 | 0.00 | 0.00 | 0.00 | 26 | 1021.4 |
| 20260506014808 | 83 | 319 | 4.3 | 7.8 | 0.00 | 0.00 | 0.00 | 24 | 1021.1 |
| 20260506014654 | 82 | 271 | 5.2 | 10.4 | 0.00 | 0.00 | 0.00 | 24 | 1021.3 |
| 20260506013600 | 83 | 290 | 0.9 | 7.8 | 0.00 | 0.00 | 0.00 | 25 | 1021.3 |
| 20260506013101 | 83 | 330 | 1.7 | 7.8 | 0.00 | 0.00 | 0.00 | 24 | 1021.3 |
| 20260506012600 | 84 | 275 | 0.9 | 5.2 | 0.00 | 0.00 | 0.00 | 24 | 1021.3 |
| 20260506012106 | 83 | 282 | 0.9 | 5.2 | 0.00 | 0.00 | 0.00 | 24 | 1021.3 |
| 20260506011600 | 84 | 298 | 1.7 | 4.3 | 0.00 | 0.00 | 0.00 | 24 | 1021.3 |
| 20260506011326 | 84 | 282 | 1.7 | 4.3 | 0.00 | 0.00 | 0.00 | 24 | 1021.1 |
| 20260506010559 | 84 | 279 | 1.7 | 4.3 | 0.00 | 0.00 | 0.00 | 24 | 1021.1 |
| 20260506010059 | 85 | 25 | 0.9 | 8.7 | 0.00 | 0.00 | 0.00 | 24 | 1021.1 |
| 20260506005600 | 84 | 286 | 0.0 | 8.7 | 0.00 | 0.00 | 0.00 | 23 | 1021.1 |
| 20260506005058 | 84 | 245 | 2.6 | 7.8 | 0.00 | 0.00 | 0.00 | 23 | 1021.1 |
| 20260506004600 | 85 | 266 | 0.9 | 7.8 | 0.00 | 0.00 | 0.00 | 23 | 1021.1 |
| 20260506004059 | 85 | 282 | 0.9 | 6.1 | 0.00 | 0.00 | 0.00 | 23 | 1021.1 |
| 20260506003600 | 84 | 285 | 1.7 | 6.1 | 0.00 | 0.00 | 0.00 | 23 | 1021.1 |
| 20260506003321 | 85 | 324 | 0.9 | 6.1 | 0.00 | 0.00 | 0.00 | 23 | 1021.1 |
| 20260506002558 | 85 | 293 | 0.0 | 5.2 | 0.00 | 0.00 | 0.00 | 23 | 1021.1 |
| 20260506002059 | 85 | 283 | 1.7 | 6.1 | 0.00 | 0.00 | 0.00 | 22 | 1021.3 |
| 20260506001558 | 85 | 238 | 4.3 | 6.1 | 0.00 | 0.00 | 0.00 | 21 | 1021.3 |
| 20260506001059 | 85 | 302 | 1.7 | 3.5 | 0.00 | 0.00 | 0.00 | 22 | 1021.3 |
| 20260506000559 | 85 | 302 | 0.0 | 9.6 | 0.00 | 0.00 | 0.00 | 23 | 1021.4 |
| 20260506000317 | 84 | 288 | 3.5 | 9.6 | 0.00 | 0.00 | 0.00 | 22 | 1021.5 |
| 20260505235558 | 84 | 283 | 1.7 | 4.3 | 0.00 | 0.00 | 0.00 | 22 | 1021.5 |
| 20260505235059 | 83 | 245 | 1.7 | 5.2 | 0.00 | 0.00 | 0.00 | 22 | 1021.5 |
| 20260505234558 | 83 | 261 | 1.7 | 5.2 | 0.00 | 0.00 | 0.00 | 23 | 1021.6 |
| 20260505234057 | 83 | 314 | 2.6 | 4.3 | 0.00 | 0.00 | 0.00 | 22 | 1021.6 |
| 20260505233604 | 84 | 265 | 2.6 | 3.5 | 0.00 | 0.00 | 0.00 | 21 | 1021.6 |
| 20260505233326 | 84 | 182 | 0.0 | 3.5 | 0.00 | 0.00 | 0.00 | 22 | 1021.6 |
| 20260505232559 | 83 | 286 | 1.7 | 5.2 | 0.00 | 0.00 | 0.00 | 21 | 1021.7 |
| 20260505232057 | 84 | 264 | 1.7 | 5.2 | 0.00 | 0.00 | 0.00 | 20 | 1021.6 |
| 20260505231558 | 84 | 293 | 3.5 | 8.7 | 0.00 | 0.00 | 0.00 | 21 | 1021.7 |
| 20260505231057 | 85 | 269 | 2.6 | 8.7 | 0.00 | 0.00 | 0.00 | 22 | 1021.8 |
| 20260505230556 | 86 | 281 | 1.7 | 4.3 | 0.00 | 0.00 | 0.00 | 21 | 1021.8 |
| 20260505230057 | 87 | 281 | 1.7 | 4.3 | 0.00 | 0.00 | 0.00 | 21 | 1021.8 |
| 20260505225557 | 86 | 3 | 0.0 | 4.3 | 0.00 | 0.00 | 0.00 | 22 | 1021.8 |
| 20260505225057 | 86 | 62 | 1.7 | 4.3 | 0.00 | 0.00 | 0.00 | 22 | 1021.8 |
| 20260505224556 | 85 | 269 | 0.9 | 5.2 | 0.00 | 0.00 | 0.00 | 20 | 1021.9 |
| 20260505224056 | 85 | 320 | 0.9 | 5.2 | 0.00 | 0.00 | 0.00 | 21 | 1021.9 |
| 20260505223556 | 85 | 62 | 0.9 | 5.2 | 0.00 | 0.00 | 0.00 | 21 | 1022.0 |
| 20260505223057 | 85 | 326 | 1.7 | 11.3 | 0.00 | 0.00 | 0.00 | 21 | 1022.1 |
| 20260505222556 | 85 | 274 | 1.7 | 11.3 | 0.00 | 0.00 | 0.00 | 21 | 1022.1 |
| 20260505222057 | 85 | 279 | 1.7 | 6.1 | 0.00 | 0.00 | 0.00 | 21 | 1022.1 |
| 20260505221556 | 85 | 283 | 0.9 | 4.3 | 0.00 | 0.00 | 0.00 | 21 | 1022.2 |
| 20260505221056 | 85 | 100 | 2.6 | 4.3 | 0.00 | 0.00 | 0.00 | 19 | 1022.2 |
| 20260505220557 | 85 | 279 | 0.9 | 5.2 | 0.00 | 0.00 | 0.00 | 20 | 1022.2 |
| 20260505220055 | 85 | 337 | 1.7 | 9.6 | 0.00 | 0.00 | 0.00 | 21 | 1022.2 |
| 20260505215556 | 84 | 271 | 3.5 | 10.4 | 0.00 | 0.00 | 0.00 | 20 | 1022.3 |
| 20260505215055 | 84 | 292 | 5.2 | 10.4 | 0.00 | 0.00 | 0.00 | 20 | 1022.3 |
| 20260505214556 | 83 | 185 | 3.5 | 7.8 | 0.00 | 0.00 | 0.00 | 21 | 1022.3 |
| 20260505214055 | 83 | 226 | 3.5 | 7.8 | 0.00 | 0.00 | 0.00 | 20 | 1022.5 |
| 20260505213830 | 83 | 312 | 1.7 | 10.4 | 0.00 | 0.00 | 0.00 | 20 | 1022.6 |
| 20260505213551 | 83 | 321 | 1.7 | 10.4 | 0.00 | 0.00 | 0.00 | 21 | 1022.6 |
| 20260505212600 | 84 | 278 | 6.1 | 9.6 | 0.00 | 0.00 | 0.00 | 19 | 1022.6 |
| 20260505212055 | 84 | 258 | 2.6 | 7.8 | 0.00 | 0.00 | 0.00 | 20 | 1022.7 |
| 20260505211554 | 84 | 282 | 2.6 | 6.1 | 0.00 | 0.00 | 0.00 | 20 | 1022.7 |
| 20260505211322 | 84 | 295 | 3.5 | 9.6 | 0.00 | 0.00 | 0.00 | 19 | 1022.7 |
| 20260505210824 | 83 | 293 | 4.3 | 9.6 | 0.00 | 0.00 | 0.00 | 19 | 1022.9 |
| 20260505210320 | 84 | 281 | 3.5 | 9.6 | 0.00 | 0.00 | 0.00 | 20 | 1022.9 |
| 20260505205553 | 83 | 278 | 3.5 | 10.4 | 0.00 | 0.00 | 0.00 | 20 | 1023.0 |
| 20260505205053 | 83 | 275 | 4.3 | 13.0 | 0.00 | 0.00 | 0.00 | 20 | 1023.0 |
| 20260505204819 | 83 | 268 | 6.1 | 13.0 | 0.00 | 0.00 | 0.00 | 21 | 1023.2 |
| 20260505204053 | 84 | 265 | 7.0 | 10.4 | 0.00 | 0.00 | 0.00 | 21 | 1023.2 |
| 20260505203555 | 83 | 238 | 3.5 | 10.4 | 0.00 | 0.00 | 0.00 | 20 | 1023.2 |
| 20260505203053 | 83 | 278 | 5.2 | 10.4 | 0.00 | 0.00 | 0.00 | 21 | 1023.1 |
| 20260505202554 | 82 | 250 | 5.2 | 10.4 | 0.00 | 0.00 | 0.00 | 22 | 1023.2 |
| 20260505202052 | 82 | 268 | 4.3 | 10.4 | 0.00 | 0.00 | 0.00 | 21 | 1023.2 |
| 20260505202040 | 82 | 288 | 4.3 | 12.2 | 0.00 | 0.00 | 0.00 | 21 | 1023.3 |
| 20260505201053 | 82 | 290 | 3.5 | 12.2 | 0.00 | 0.00 | 0.00 | 21 | 1023.3 |
| 20260505200552 | 83 | 258 | 0.9 | 6.1 | 0.00 | 0.00 | 0.00 | 24 | 1023.3 |
| 20260505200053 | 83 | 55 | 0.0 | 4.3 | 0.00 | 0.00 | 0.00 | 22 | 1023.3 |
| 20260505195812 | 82 | 73 | 0.9 | 4.3 | 0.00 | 0.00 | 0.00 | 25 | 1023.5 |
| 20260505195054 | 83 | 47 | 0.9 | 6.1 | 0.00 | 0.00 | 0.00 | 24 | 1023.5 |
| 20260505194551 | 82 | 195 | 3.5 | 6.1 | 0.00 | 0.00 | 0.00 | 24 | 1023.5 |
| 20260505194053 | 82 | 135 | 1.7 | 6.1 | 0.00 | 0.00 | 0.00 | 25 | 1023.5 |
| 20260505193552 | 81 | 118 | 2.6 | 6.1 | 0.00 | 0.00 | 0.00 | 26 | 1023.6 |
| 20260505193052 | 80 | 138 | 3.5 | 5.2 | 0.00 | 0.00 | 0.00 | 26 | 1023.5 |
| 20260505192816 | 80 | 172 | 3.5 | 5.2 | 0.00 | 0.00 | 0.00 | 26 | 1023.6 |
| 20260505192053 | 80 | 193 | 3.5 | 5.2 | 0.00 | 0.00 | 0.00 | 26 | 1023.7 |
| 20260505191554 | 79 | 90 | 3.5 | 5.2 | 0.00 | 0.00 | 0.00 | 26 | 1023.8 |
| 20260505191052 | 79 | 107 | 2.6 | 4.3 | 0.00 | 0.00 | 0.00 | 27 | 1023.9 |
| 20260505190557 | 79 | 85 | 1.7 | 5.2 | 0.00 | 0.00 | 0.00 | 28 | 1023.9 |
| 20260505190052 | 78 | 133 | 2.6 | 6.1 | 0.00 | 0.00 | 0.00 | 28 | 1024.0 |
| 20260505185552 | 77 | 166 | 0.9 | 6.1 | 0.00 | 0.00 | 0.00 | 29 | 1024.0 |
| 20260505185051 | 78 | 130 | 3.5 | 5.2 | 0.00 | 0.00 | 0.00 | 29 | 1024.2 |
| 20260505184551 | 76 | 124 | 0.9 | 4.3 | 0.00 | 0.00 | 0.00 | 30 | 1024.1 |
| 20260505184051 | 76 | 217 | 1.7 | 4.3 | 0.00 | 0.00 | 0.00 | 29 | 1024.2 |
| 20260505183547 | 76 | 59 | 0.9 | 7.8 | 0.00 | 0.00 | 0.00 | 30 | 1024.4 |
| 20260505183051 | 76 | 96 | 3.5 | 7.8 | 0.00 | 0.00 | 0.00 | 29 | 1024.4 |
| 20260505182556 | 76 | 100 | 1.7 | 6.1 | 0.00 | 0.00 | 0.00 | 32 | 1024.4 |
| 20260505182052 | 75 | 82 | 2.6 | 7.8 | 0.00 | 0.00 | 0.00 | 32 | 1024.4 |
| 20260505181550 | 74 | 62 | 2.6 | 7.8 | 0.00 | 0.00 | 0.00 | 32 | 1024.5 |
| 20260505181100 | 74 | 100 | 2.6 | 7.8 | 0.00 | 0.00 | 0.00 | 32 | 1024.6 |
| 20260505180550 | 74 | 130 | 2.6 | 5.2 | 0.00 | 0.00 | 0.00 | 33 | 1024.6 |
| 20260505180310 | 74 | 134 | 2.6 | 4.3 | 0.00 | 0.00 | 0.00 | 34 | 1024.6 |
| 20260505175547 | 73 | 71 | 2.6 | 6.1 | 0.00 | 0.00 | 0.00 | 35 | 1024.7 |
| 20260505175046 | 72 | 93 | 2.6 | 6.1 | 0.00 | 0.00 | 0.00 | 34 | 1024.7 |
| 20260505174550 | 72 | 111 | 2.6 | 5.2 | 0.00 | 0.00 | 0.00 | 36 | 1024.8 |
| 20260505174529 | 71 | 59 | 2.6 | 6.1 | 0.00 | 0.00 | 0.00 | 39 | 1024.8 |
| 20260505174147 | 72 | 58 | 1.7 | 5.2 | 0.00 | 0.00 | 0.00 | 39 | 1024.8 |
| 20260505173050 | 71 | 80 | 0.9 | 6.1 | 0.00 | 0.00 | 0.00 | 40 | 1024.9 |